Weather reports worldwide

Advertisment
Salon, France (7648): temperature & dewpoint: 20.05.2019 02:00:00 - 26.05.2019 02:00:00 (CEST)Salon, France (7648): temperature 5cm: 20.05.2019 02:00:00 - 26.05.2019 02:00:00 (CEST)Salon, France (7648): wind speed & gusts: 20.05.2019 02:00:00 - 26.05.2019 02:00:00 (CEST)Salon, France (7648): wind direction: 20.05.2019 02:00:00 - 26.05.2019 02:00:00 (CEST)Salon, France (7648): reduced air pressure: 20.05.2019 02:00:00 - 26.05.2019 02:00:00 (CEST)Salon, France (7648): visibility: 20.05.2019 02:00:00 - 26.05.2019 02:00:00 (CEST)Salon, France (7648): precipitation: 20.05.2019 02:00:00 - 26.05.2019 02:00:00 (CEST)
Date & Time tt [°C] td [°C] tt 5cm [°C] ff [km/h] ff [kn] fx [km/h] fx [kn] dd ppp [hPa] vv [km] rr [mm]
26.05.2019 02:00:00 - - - - - - - - - - -
26.05.2019 01:00:00 12,5 10,6 9,7 0 0 6 4 N 1014,5 27 0,0
26.05.2019 00:00:00 13,7 10,5 10,4 3 2 8 5 NE 1014,7 35 0,0
25.05.2019 23:00:00 16,0 11,8 12,2 5 3 12 6 SW 1015,0 41 0,0
25.05.2019 22:00:00 16,0 11,4 13,2 4 2 6 3 E 1015,0 41 0,0
25.05.2019 21:00:00 18,3 12,1 15,8 5 3 19 10 ESE 1014,2 60 0,0
25.05.2019 20:00:00 20,8 12,7 21,1 9 5 22 12 SSE 1014,2 34 0,0
25.05.2019 19:00:00 20,9 12,3 21,6 14 8 24 13 SE 1014,0 30 0,0
25.05.2019 18:00:00 22,4 13,5 29,7 16 8 28 15 SSW 1013,5 20 0,0
25.05.2019 17:00:00 22,1 13,7 30,0 19 10 29 16 SW 1013,1 22 0,0
25.05.2019 16:00:00 23,1 14,1 32,7 16 9 26 14 SSW 1013,4 19 0,0
25.05.2019 15:00:00 23,9 13,7 30,2 10 5 19 11 S 1013,7 23 0,0
25.05.2019 14:00:00 21,9 13,8 28,5 10 5 20 11 SSW 1014,4 20 0,0
25.05.2019 13:00:00 21,6 13,8 27,7 9 5 19 10 WSW 1014,8 18 0,0
25.05.2019 12:00:00 20,5 13,7 26,4 4 2 14 8 SW 1015,0 16 0,0
25.05.2019 11:00:00 19,3 13,2 22,2 6 4 12 7 S 1015,1 19 0,0
25.05.2019 10:00:00 18,0 13,3 20,4 7 4 11 6 WSW 1014,9 24 0,0
25.05.2019 09:00:00 17,4 13,5 17,5 0 0 7 4 N 1014,7 17 0,0
25.05.2019 08:00:00 15,0 13,0 13,0 5 3 8 4 NE 1014,4 16 0,0
25.05.2019 07:00:00 13,4 12,0 11,1 3 1 6 3 S 1014,1 9 0,0
25.05.2019 06:00:00 12,7 11,4 10,9 5 3 6 3 NE 1013,7 10 0,0
25.05.2019 05:00:00 12,8 11,4 10,9 0 0 5 3 N 1013,5 12 0,0
25.05.2019 04:00:00 13,1 11,7 11,5 4 2 7 4 ENE 1013,5 11 0,0
25.05.2019 03:00:00 13,4 11,8 10,7 2 1 7 4 SSW 1013,3 13 0,0
25.05.2019 02:00:00 13,5 12,1 10,6 0 0 3 2 N 1013,5 7 0,0
25.05.2019 01:00:00 14,5 12,0 11,5 0 0 4 2 N 1014,1 15 0,0
25.05.2019 00:00:00 15,1 13,0 12,8 5 3 6 4 SSW 1014,3 13 0,0
24.05.2019 23:00:00 15,2 12,9 12,8 4 2 8 5 ENE 1014,4 18 0,0
24.05.2019 22:00:00 15,9 13,4 14,6 6 3 10 5 E 1014,1 14 0,0
24.05.2019 21:00:00 16,9 13,6 15,7 4 2 11 6 SSE 1013,9 20 0,0
24.05.2019 20:00:00 17,8 13,5 17,9 7 4 18 10 S 1013,7 32 0,0
24.05.2019 19:00:00 17,9 13,6 18,7 10 6 19 11 SW 1013,6 25 0,0
24.05.2019 18:00:00 18,0 13,9 19,5 12 7 20 11 SW 1013,7 22 0,0
24.05.2019 17:00:00 18,8 13,4 21,4 13 7 25 13 SW 1013,6 29 0,0
24.05.2019 16:00:00 19,5 13,2 22,9 16 9 28 15 SW 1013,7 58 0,0
24.05.2019 15:00:00 19,9 11,9 23,3 16 9 29 16 SSW 1013,8 60 0,0
24.05.2019 14:00:00 22,1 12,9 - 18 10 - - SSW 1014,0 45 -
24.05.2019 13:00:00 22,2 9,0 29,8 9 5 17 9 SSW 1014,3 60 0,0
24.05.2019 12:00:00 21,8 8,3 24,7 10 6 19 10 SW 1014,5 60 0,0
24.05.2019 11:00:00 22,1 9,9 28,8 6 3 17 9 SW 1014,5 30 0,0
24.05.2019 10:00:00 20,7 11,3 26,1 2 1 7 4 SW 1014,5 56 0,0
24.05.2019 09:00:00 17,8 11,6 14,2 2 1 6 3 ENE 1014,6 33 0,0
24.05.2019 08:00:00 13,0 9,8 11,1 4 2 7 4 N 1014,9 10 0,0
24.05.2019 07:00:00 11,4 9,1 7,9 0 0 7 4 N 1014,5 32 0,0
24.05.2019 06:00:00 11,0 8,9 7,8 0 0 7 4 N 1014,3 21 0,0
24.05.2019 05:00:00 10,9 9,0 8,5 3 2 8 5 ENE 1014,1 20 0,0
24.05.2019 04:00:00 11,4 9,8 8,6 7 4 10 6 NE 1014,3 15 0,0
24.05.2019 03:00:00 11,3 9,7 8,8 6 4 10 5 NE 1014,9 12 0,0
24.05.2019 02:00:00 11,5 10,1 8,6 7 4 10 5 ENE 1015,4 13 0,0
24.05.2019 01:00:00 11,9 10,3 9,1 0 0 6 3 N 1015,8 14 0,0
24.05.2019 00:00:00 12,7 10,9 10,0 3 2 6 3 ENE 1016,0 11 0,0
23.05.2019 23:00:00 13,9 11,2 10,6 2 1 5 3 E 1016,2 10 0,0
23.05.2019 22:00:00 15,5 11,5 12,1 0 0 10 5 N 1016,0 14 0,0
23.05.2019 21:00:00 18,0 12,9 16,3 7 4 13 7 SSW 1015,6 32 0,0
23.05.2019 20:00:00 20,1 11,6 22,8 10 5 18 10 SW 1015,2 48 0,0
23.05.2019 19:00:00 21,1 11,7 27,4 13 7 24 13 SSW 1014,9 47 0,0
23.05.2019 18:00:00 22,2 11,3 29,7 16 9 27 14 SW 1015,0 50 0,0
23.05.2019 17:00:00 22,6 12,5 30,8 17 9 29 16 SSW 1015,0 54 0,0
23.05.2019 16:00:00 23,4 12,1 32,3 16 8 27 15 SSW 1015,3 57 0,0
23.05.2019 15:00:00 23,2 11,9 31,8 13 7 29 15 SSW 1015,8 52 0,0
23.05.2019 14:00:00 22,9 11,6 31,7 17 9 27 15 SSW 1016,3 57 0,0
23.05.2019 13:00:00 22,6 11,3 30,8 9 5 21 11 SSW 1016,7 60 0,0
23.05.2019 12:00:00 21,8 10,6 30,0 9 5 19 11 SSW 1017,2 60 0,0
23.05.2019 11:00:00 20,4 11,6 27,7 6 3 11 6 W 1017,3 60 0,0
23.05.2019 10:00:00 19,1 11,4 24,3 4 2 13 7 NNE 1017,5 46 0,0
23.05.2019 09:00:00 17,2 11,7 18,3 8 4 15 8 NE 1017,2 30 0,0
23.05.2019 08:00:00 14,4 10,6 9,9 8 4 13 7 ENE 1017,0 26 0,0
23.05.2019 07:00:00 10,2 7,6 4,9 5 3 8 4 N 1016,6 29 0,0
23.05.2019 06:00:00 9,7 5,9 5,1 3 2 6 4 N 1016,3 47 0,0
23.05.2019 05:00:00 11,6 6,5 5,8 0 0 6 4 N 1016,0 49 0,0
23.05.2019 04:00:00 11,2 6,1 6,9 2 1 9 5 ENE 1016,2 54 0,0
23.05.2019 03:00:00 15,6 6,0 9,2 5 3 10 5 N 1015,9 60 0,0
23.05.2019 02:00:00 16,8 6,0 14,8 3 2 16 9 S 1015,8 60 0,0
23.05.2019 01:00:00 17,9 6,1 14,9 7 4 12 7 W 1015,8 60 0,0
23.05.2019 00:00:00 18,4 6,2 15,1 6 3 17 9 WSW 1015,7 60 0,0
22.05.2019 23:00:00 19,5 6,6 18,0 9 5 20 11 W 1015,6 60 0,0
22.05.2019 22:00:00 20,7 6,2 18,9 11 6 28 15 NW 1015,3 60 0,0
22.05.2019 21:00:00 22,2 6,8 20,6 14 8 36 20 NW 1014,8 60 0,0
22.05.2019 20:00:00 23,9 7,1 25,3 19 10 39 21 NW 1014,3 60 0,0
22.05.2019 19:00:00 25,0 7,2 28,9 22 12 36 19 NNW 1014,2 57 0,0
22.05.2019 18:00:00 26,0 8,5 31,3 21 12 34 18 NW 1014,2 60 0,0
22.05.2019 17:00:00 26,2 8,2 33,9 11 6 26 14 NW 1014,3 60 0,0
22.05.2019 16:00:00 25,7 9,9 33,7 11 6 23 13 WNW 1014,5 60 0,0
22.05.2019 15:00:00 25,1 9,0 32,7 11 6 28 15 W 1014,8 60 0,0
22.05.2019 14:00:00 24,2 8,6 32,4 11 6 24 13 NNW 1015,0 57 0,0
22.05.2019 13:00:00 23,3 8,6 31,6 7 4 21 11 N 1015,3 52 0,0
22.05.2019 12:00:00 21,7 9,6 29,1 9 5 19 11 NW 1015,5 29 0,0
22.05.2019 11:00:00 20,5 10,0 26,6 10 5 21 11 NW 1015,4 20 0,0
22.05.2019 10:00:00 19,1 9,8 23,5 7 4 23 12 NE 1015,3 20 0,0
22.05.2019 09:00:00 17,2 9,6 17,9 16 9 24 13 NNW 1015,5 20 0,0
22.05.2019 08:00:00 14,4 10,6 11,2 3 1 6 4 ENE 1015,2 18 0,0
22.05.2019 07:00:00 12,4 9,0 9,7 0 0 21 11 N 1014,9 20 0,0
22.05.2019 06:00:00 13,8 8,6 10,5 9 5 19 10 N 1014,1 20 0,0
22.05.2019 05:00:00 15,2 8,9 12,7 4 2 31 17 NE 1013,7 20 0,0
22.05.2019 04:00:00 16,2 9,1 15,0 20 11 36 19 NNW 1013,4 20 0,0
22.05.2019 03:00:00 16,4 9,3 15,5 21 12 38 21 NNW 1013,4 20 0,0
22.05.2019 02:00:00 16,9 9,3 15,9 21 12 35 19 NW 1013,3 20 0,0
22.05.2019 01:00:00 17,6 9,2 16,5 19 10 36 20 NW 1013,5 20 0,0
22.05.2019 00:00:00 18,3 8,5 17,1 19 10 51 28 NW 1013,1 20 0,0
21.05.2019 23:00:00 19,0 8,9 18,0 25 13 48 26 NW 1012,7 20 0,0
21.05.2019 22:00:00 19,6 8,3 18,4 25 14 54 29 NW 1012,4 20 0,0
21.05.2019 21:00:00 20,2 7,9 19,3 27 15 53 28 NW 1011,7 20 0,0
21.05.2019 20:00:00 21,9 7,3 22,7 31 17 57 31 NW 1011,2 20 0,0
21.05.2019 19:00:00 22,8 7,7 25,5 37 20 59 32 NNW 1011,1 20 0,0
21.05.2019 18:00:00 23,6 7,2 24,7 31 17 59 32 NW 1011,1 20 0,0
21.05.2019 17:00:00 23,1 7,6 26,2 42 23 67 36 NNW 1011,2 20 0,0
21.05.2019 16:00:00 23,8 9,0 27,6 35 19 64 35 NW 1011,3 20 0,0
21.05.2019 15:00:00 23,1 8,8 25,2 39 21 71 38 NW 1011,3 20 0,0
21.05.2019 14:00:00 22,9 9,3 26,9 42 23 67 36 NNW 1011,3 14 0,0
21.05.2019 13:00:00 22,0 9,2 26,2 41 22 70 38 NNW 1011,1 16 0,0
21.05.2019 12:00:00 21,4 9,3 25,2 39 21 60 32 NNW 1011,4 13 0,0
21.05.2019 11:00:00 20,2 10,9 23,6 43 23 63 34 NNW 1011,5 14 0,0
21.05.2019 10:00:00 19,4 10,4 21,4 31 17 59 32 NNW 1011,2 20 0,0
21.05.2019 09:00:00 17,6 10,7 18,1 33 18 58 31 NW 1011,0 18 0,0
21.05.2019 08:00:00 16,0 10,5 14,8 24 13 43 23 NW 1011,0 18 0,0
21.05.2019 07:00:00 14,8 10,0 13,5 13 7 29 16 WNW 1010,7 46 0,0
21.05.2019 06:00:00 14,5 9,7 13,3 18 10 32 18 WNW 1010,8 24 0,0
21.05.2019 05:00:00 14,5 9,9 13,4 15 8 42 23 NW 1010,8 28 0,0
21.05.2019 04:00:00 14,9 9,9 13,0 18 10 36 19 WNW 1010,7 33 0,0
21.05.2019 03:00:00 15,3 9,9 14,4 27 14 52 28 NW 1011,3 35 0,0
21.05.2019 02:00:00 15,7 9,8 14,6 19 11 39 21 NW 1011,2 41 0,0
21.05.2019 01:00:00 15,9 9,6 15,0 18 10 40 22 NW 1011,3 57 0,0
21.05.2019 00:00:00 16,4 9,3 15,4 22 12 39 21 NW 1011,1 60 0,0
20.05.2019 23:00:00 16,7 9,1 15,5 14 8 28 15 WNW 1011,1 60 0,0
20.05.2019 22:00:00 17,5 8,4 16,3 15 8 39 21 WNW 1010,4 60 0,0
20.05.2019 21:00:00 18,6 9,1 17,6 24 13 38 21 NW 1009,6 60 0,0
20.05.2019 20:00:00 20,2 9,7 21,0 19 10 47 26 NW 1009,2 51 0,0
20.05.2019 19:00:00 21,1 8,0 21,9 26 14 44 24 NW 1008,7 60 0,0
20.05.2019 18:00:00 22,2 8,7 22,3 28 15 42 23 NW 1008,3 60 0,0
20.05.2019 17:00:00 21,2 9,1 22,4 25 14 53 28 NNW 1008,3 42 0,0
20.05.2019 16:00:00 22,5 10,3 23,0 26 14 45 25 NW 1008,1 56 0,0
20.05.2019 15:00:00 22,3 9,8 23,4 29 16 56 30 NW 1008,4 27 0,0
20.05.2019 14:00:00 20,5 9,4 21,7 37 20 57 31 NNW 1008,5 28 0,0
20.05.2019 13:00:00 20,3 10,7 21,1 31 17 49 26 NNW 1008,4 29 0,0
20.05.2019 12:00:00 19,3 11,1 20,5 23 12 45 24 NNW 1008,1 39 0,0
20.05.2019 11:00:00 18,8 11,8 17,2 26 14 46 25 NW 1008,0 40 0,0
20.05.2019 10:00:00 15,9 10,6 15,2 21 12 35 19 NW 1007,9 37 0,0
20.05.2019 09:00:00 14,5 11,1 13,6 9 5 23 13 WNW 1007,6 44 0,0
20.05.2019 08:00:00 13,2 10,9 11,6 6 3 15 8 WNW 1007,3 47 0,0
20.05.2019 07:00:00 12,1 10,5 11,4 8 4 18 10 W 1006,9 35 0,0
20.05.2019 06:00:00 12,0 10,7 11,4 9 5 13 7 W 1006,4 23 0,0
20.05.2019 05:00:00 12,0 10,7 11,5 8 4 13 7 W 1006,4 24 0,0
20.05.2019 04:00:00 12,1 11,0 11,5 4 2 10 5 WNW 1006,5 24 0,0
20.05.2019 03:00:00 12,3 11,2 11,8 6 4 14 8 W 1006,7 26 0,0
20.05.2019 02:00:00 12,2 11,3 11,8 7 4 18 10 WNW 1006,8 24 0,0

tt = temperature
td = dewpoint
tt 5cm = temperature 5cm
ff = wind speed
fx = gusts
dd = wind direction
ppp = reduced air pressure
vv = visibility
rr = precipitation

Next stations